Regional Weather Roundup
Issued by NWS

Home | Current Version | Previous Version | Graphics & Text | Print | Product List | Glossary On
Versions: 1 2 3 4 5 6 7 8 9 10 11 12 13 14 15 16 17 18 19 20 21 22 23 24 25 26 27 28 29 30 31 32 33 34 35 36 37 38 39 40 41 42 43 44 45 46 47 48 49 50
000
ASUS45 KBOU 281407
RWRCO

WEATHER ROUNDUP FOR COLORADO
NATIONAL WEATHER SERVICE DENVER/BOULDER CO
800 AM MDT SAT MAR 28 2015

NOTE: "FAIR" INDICATES FEW OR NO CLOUDS BELOW 12000 FEET WITH NO
SIGNIFICANT WEATHER AND/OR OBSTRUCTIONS TO VISIBILITY.

COZ001>005-013-030-031-281500-
...NORTHWEST COLORADO...

CITY           SKY/WX    TMP DP  RH WIND       PRES   REMARKS
CRAIG          SUNNY     30  27  88 CALM      30.23R
HAYDEN         SUNNY     37  27  65 E12       30.23S
MEEKER         SUNNY     36  27  69 E6        30.24S
MOUNT WERNER   NOT AVBL
STEAMBOAT SPGS SUNNY     33  27  77 CALM      30.25S
WALDEN         SUNNY     36  27  69 S12       30.25S
$$

COZ006>008-011-281500-
...WEST CENTRAL VALLEYS...

CITY           SKY/WX    TMP DP  RH WIND       PRES   REMARKS
GRAND JUNCTION CLEAR     44  27  51 E9        30.20R
MONTROSE       SUNNY     42  26  53 SE10      30.26R
EAGLE          SUNNY     30  27  86 CALM      30.32R
RIFLE          SUNNY     36  27  69 CALM      30.25R
DELTA          SUNNY     43  27  52 NE3       30.25R
NUCLA          CLEAR     39  27  60 CALM      30.30R
$$

COZ017>023-064>068-281500-
...SOUTHWEST COLORADO...

CITY           SKY/WX    TMP DP  RH WIND       PRES   REMARKS
DURANGO        SUNNY     36  23  59 N7        30.29R
CORTEZ         CLEAR     35  23  61 NE6       30.27R WCI  30
PAGOSA SPRINGS SUNNY     36  23  59 CALM      30.33R
TELLURIDE      SUNNY     37  23  55 SE6       30.40S
WOLF CREEK PAS SUNNY     32  14  47 SW13      30.50R WCI  22
$$

COZ009-010-012-014-032>034-037-058>063-281500-
...CENTRAL COLORADO...

CITY           SKY/WX    TMP DP  RH WIND       PRES   REMARKS
ASPEN          SUNNY     33  24  69 SW6       30.30R WCI  28
BUENA VISTA    SUNNY     32  25  74 CALM      30.29S
COPPER MTN     SUNNY     34  19  55 SW9       30.44R WCI  26
BERTHOUD PASS  FAIR      27  19  74 NW30      30.41S WCI  10
COTTONWOOD PAS SUNNY     45  19  36 N8        30.33F
GUNNISON       MOSUNNY   27  19  74 CALM      30.39R
KREMMLING      SUNNY     30  27  86 CALM      30.32R
LEADVILLE      SUNNY     31  18  58 N5        30.35S WCI  26
SALIDA         SUNNY     37  25  62 CALM      30.36F
SUNLIGHT       SUNNY     36  23  60 CALM      30.44R
WILKERSON PASS MOSUNNY   34  18  51 W10G21    30.40S WCI  26
$$

COZ069>075-281500-
...SAN LUIS VALLEY/SANGRE DE CRISTO MOUNTAINS...

CITY           SKY/WX    TMP DP  RH WIND       PRES   REMARKS
ALAMOSA        MOSUNNY   32  22  66 CALM      30.31R
LA VETA PASS   MOSUNNY   37  19  48 SW5       30.37R
SAGUACHE       SUNNY     37  21  52 NW14      30.31S
$$

COZ035-036-038>040-281500-
...NORTHERN COLORADO FRONT RANGE...

CITY           SKY/WX    TMP DP  RH WIND       PRES   REMARKS
DENVER INTL AP SUNNY     53  30  41 SW9       30.09S
DMNS CITY PARK   N/A     49  28  42 S13       30.10S
AURORA         SUNNY     52  29  40 SW7       30.11S
FRONT RANGE AP SUNNY     55  30  38 MISG      30.10S
ERIE MUNI ARPT SUNNY     48  32  54 S5        30.07F
BOULDER MUN AP SUNNY     50  30  46 SW5       30.07S
CENTENNIAL     MOSUNNY   52  32  46 SW7       30.12R
BROOMFIELD     SUNNY     59  28  31 W10       30.10S
FORT COLLINS   SUNNY     45  30  57 S3        30.09R
LONGMONT       SUNNY     47  37  67 CALM      30.08F
$$

COZ041-046-047-076>085-087-088-281500-
...PIKES PEAK/PALMER DIVIDE AND SOUTHERN FOOTHILLS...

CITY           SKY/WX    TMP DP  RH WIND       PRES   REMARKS
COLO. SPRINGS  SUNNY     54  25  32 NW8       30.17R
A. F. ACADEMY  SUNNY     45  27  49 N6        30.17R
ELLICOTT       SUNNY    N/A N/A N/A N3        30.15R
FALCON         SUNNY     52  23  31 NW8       30.19R
FORT CARSON    SUNNY     52  30  43 NW6       30.13R
LIMON          SUNNY     47  32  56 N3        30.11R
MONUMENT HILL  SUNNY     46  27  46 SW7       30.17S
TRINIDAD       SUNNY     47  27  45 W17       30.17R
$$

COZ042>045-048>051-090-091-281500-
...NORTHEAST COLORADO...

CITY           SKY/WX    TMP DP  RH WIND       PRES   REMARKS
GREELEY ARPT   SUNNY     37  25  60 CALM      30.06S
AKRON          SUNNY     50  32  50 W15       30.05R
BURLINGTON     SUNNY     46  34  62 W8        30.05R
WRAY           SUNNY     43  34  69 W6        30.02S
STERLING       SUNNY     37  32  81 S3        30.03S
HOLYOKE        SUNNY     43  32  65 W6        30.02R
FORT MORGAN    SUNNY     42  30  61 W9        30.06S
$$

COZ086-089-092>099-281500-
...SOUTHEAST COLORADO...

CITY           SKY/WX    TMP DP  RH WIND       PRES   REMARKS
PUEBLO         SUNNY     45  32  60 W8        30.11R
LA JUNTA       SUNNY     48  33  56 SW6       30.08R
LAMAR          SUNNY     48  36  63 W5        30.05R
SPRINGFIELD      N/A     56  34  43 W12       30.07S
$$



USA.gov is the U.S. government's official web portal to all federal, state and local government web resources and services.